APG692 RPMY-RPLL

Flight info

Callsign APG692
Flight time 1h 5m
Altitude 36000
Route LIRYX5A LIRYX B473 LAIYA LAIYA3R
Aircraft A320/M-SDE3FGHIRWY/LB1

Departure

Time 2026-05-04 04:44
Airport Laguindingan International Airport (RPMY)

Arrival

Time 2026-05-04 05:49
Airport Ninoy Aquino International Airport (RPLL)
Time Latitude Longitude Altitude Speed Heading
2026-05-04 04:28 8.60912 124.45841 195 ft 0 kts 175°
2026-05-04 04:35 8.60929 124.45839 195 ft 2 kts 176°
2026-05-04 04:35 8.60945 124.45838 195 ft 2 kts 175°
2026-05-04 04:35 8.60961 124.45837 195 ft 2 kts 175°
2026-05-04 04:35 8.60977 124.45836 195 ft 2 kts 194°
2026-05-04 04:36 8.60992 124.45844 195 ft 2 kts 229°
2026-05-04 04:36 8.60999 124.45857 195 ft 1 kts 260°
2026-05-04 04:36 8.60999 124.45861 195 ft 1 kts 265°
2026-05-04 04:36 8.60996 124.45841 195 ft 1 kts 262°
2026-05-04 04:37 8.60995 124.45834 195 ft 0 kts 265°
2026-05-04 04:39 8.60995 124.45833 195 ft 0 kts 265°
2026-05-04 04:39 8.60994 124.45821 195 ft 2 kts 266°
2026-05-04 04:39 8.60993 124.45799 195 ft 3 kts 266°
2026-05-04 04:39 8.60990 124.45763 195 ft 6 kts 266°
2026-05-04 04:40 8.60986 124.45702 195 ft 10 kts 265°
2026-05-04 04:40 8.60983 124.45642 195 ft 8 kts 273°
2026-05-04 04:40 8.61027 124.45612 195 ft 9 kts 355°
2026-05-04 04:40 8.61100 124.45607 195 ft 10 kts 356°
2026-05-04 04:41 8.61180 124.45597 195 ft 12 kts 341°
2026-05-04 04:41 8.61210 124.45523 195 ft 12 kts 266°
2026-05-04 04:41 8.61204 124.45431 195 ft 13 kts 265°
2026-05-04 04:41 8.61195 124.45326 195 ft 16 kts 265°
2026-05-04 04:42 8.61185 124.45203 195 ft 18 kts 265°
2026-05-04 04:42 8.61175 124.45065 195 ft 20 kts 266°
2026-05-04 04:42 8.61164 124.44915 195 ft 22 kts 264°
2026-05-04 04:42 8.61127 124.44773 195 ft 18 kts 236°
2026-05-04 04:43 8.61120 124.44718 195 ft 6 kts 342°
2026-05-04 04:43 8.61150 124.44750 195 ft 7 kts 85°
2026-05-04 04:43 8.61163 124.44915 195 ft 56 kts 85°
2026-05-04 04:43 8.61214 124.45564 196 ft 124 kts 86°
2026-05-04 04:44 8.61313 124.46585 412 ft 156 kts 82°
2026-05-04 04:44 8.61413 124.47665 1035 ft 155 kts 82°
2026-05-04 04:44 8.61725 124.48657 1649 ft 152 kts 44°
2026-05-04 04:44 8.62691 124.48994 2160 ft 157 kts 359°
2026-05-04 04:45 8.63831 124.48867 2584 ft 170 kts 355°
2026-05-04 04:45 8.65061 124.48727 2987 ft 185 kts 356°
2026-05-04 04:45 8.66390 124.48604 3383 ft 202 kts 358°
2026-05-04 04:47 8.77050 124.48148 6862 ft 283 kts 360°
2026-05-04 04:47 8.79000 124.48068 7704 ft 284 kts 359°
2026-05-04 04:47 8.81001 124.47749 8452 ft 291 kts 341°
2026-05-04 04:47 8.82755 124.46678 9163 ft 298 kts 318°
2026-05-04 04:48 8.84212 124.45173 9867 ft 303 kts 314°
2026-05-04 04:49 8.90503 124.38405 11501 ft 358 kts 315°
2026-05-04 04:49 8.92283 124.36532 11770 ft 373 kts 315°
2026-05-04 04:49 8.94153 124.34567 12170 ft 382 kts 315°
2026-05-04 04:49 8.96013 124.32610 12712 ft 385 kts 315°
2026-05-04 04:50 8.97936 124.30587 13273 ft 388 kts 315°
2026-05-04 04:50 8.99836 124.28587 13782 ft 391 kts 315°
2026-05-04 04:50 9.01865 124.26635 14246 ft 395 kts 321°
2026-05-04 04:50 9.04095 124.24899 14712 ft 397 kts 327°
2026-05-04 04:51 9.06503 124.23383 15166 ft 400 kts 331°
2026-05-04 04:51 9.08946 124.21965 15598 ft 403 kts 332°
2026-05-04 04:51 9.11412 124.20552 16021 ft 406 kts 332°
2026-05-04 04:51 9.13981 124.19076 16445 ft 410 kts 332°
2026-05-04 04:52 9.16613 124.17559 16858 ft 413 kts 332°
2026-05-04 04:52 9.19191 124.16067 17244 ft 416 kts 332°
2026-05-04 04:52 9.21753 124.14582 17613 ft 419 kts 332°
2026-05-04 04:52 9.24328 124.13089 17996 ft 422 kts 332°
2026-05-04 04:53 9.26898 124.11597 18376 ft 424 kts 332°
2026-05-04 04:53 9.29516 124.10076 18749 ft 426 kts 332°
2026-05-04 04:53 9.32166 124.08536 19106 ft 428 kts 332°
2026-05-04 04:53 9.34760 124.07027 19445 ft 430 kts 332°
2026-05-04 04:54 9.37408 124.05489 19785 ft 432 kts 332°
2026-05-04 04:54 9.40076 124.03946 20127 ft 434 kts 332°
2026-05-04 04:54 9.42748 124.02406 20453 ft 435 kts 332°
2026-05-04 04:54 9.45404 124.00875 20772 ft 437 kts 332°
2026-05-04 04:55 9.48064 123.99341 21082 ft 439 kts 332°
2026-05-04 04:55 9.50734 123.97796 21390 ft 440 kts 332°
2026-05-04 04:55 9.53399 123.96250 21683 ft 442 kts 332°
2026-05-04 04:55 9.56074 123.94696 21974 ft 443 kts 332°
2026-05-04 04:56 9.58757 123.93138 22249 ft 445 kts 332°
2026-05-04 04:56 9.61448 123.91576 22523 ft 447 kts 332°
2026-05-04 04:56 9.64163 123.89999 22793 ft 449 kts 331°
2026-05-04 04:56 9.66849 123.88437 23051 ft 451 kts 331°
2026-05-04 04:57 9.69658 123.86803 23319 ft 453 kts 331°
2026-05-04 04:57 9.72488 123.85158 23591 ft 454 kts 331°
2026-05-04 04:57 9.75209 123.83575 23848 ft 456 kts 331°
2026-05-04 04:57 9.77972 123.81966 24092 ft 458 kts 331°
2026-05-04 04:58 9.80742 123.80353 24343 ft 459 kts 331°
2026-05-04 04:58 9.83512 123.78741 24597 ft 460 kts 331°
2026-05-04 04:58 9.86291 123.77123 24844 ft 462 kts 331°
2026-05-04 04:58 9.89096 123.75490 25085 ft 463 kts 331°
2026-05-04 04:59 9.91939 123.73834 25321 ft 464 kts 331°
2026-05-04 04:59 9.94760 123.72192 25547 ft 466 kts 331°
2026-05-04 04:59 9.97606 123.70534 25768 ft 468 kts 331°
2026-05-04 04:59 10.00443 123.68881 25988 ft 469 kts 331°
2026-05-04 05:00 10.03254 123.67241 26210 ft 470 kts 331°
2026-05-04 05:00 10.06088 123.65587 26425 ft 471 kts 331°
2026-05-04 05:00 10.11970 123.62151 26844 ft 474 kts 331°
2026-05-04 05:01 10.15176 123.60278 27059 ft 475 kts 331°
2026-05-04 05:01 10.18365 123.58415 27264 ft 477 kts 330°
2026-05-04 05:01 10.21332 123.56679 27439 ft 478 kts 331°
2026-05-04 05:01 10.24274 123.54958 27596 ft 480 kts 331°
2026-05-04 05:02 10.27481 123.53083 27784 ft 481 kts 331°
2026-05-04 05:02 10.30472 123.51335 27990 ft 481 kts 331°
2026-05-04 05:02 10.33408 123.49625 28231 ft 481 kts 331°
2026-05-04 05:02 10.36292 123.47945 28469 ft 480 kts 331°
2026-05-04 05:03 10.39204 123.46247 28707 ft 480 kts 331°
2026-05-04 05:03 10.42134 123.44538 28956 ft 479 kts 331°
2026-05-04 05:04 10.50776 123.39490 29748 ft 477 kts 330°
2026-05-04 05:04 10.53679 123.37792 30022 ft 477 kts 330°
2026-05-04 05:04 10.56554 123.36111 30290 ft 476 kts 330°
2026-05-04 05:06 10.77064 123.24120 32331 ft 471 kts 330°
2026-05-04 05:06 10.79909 123.22456 32624 ft 470 kts 330°
2026-05-04 05:06 10.82712 123.20812 32952 ft 469 kts 330°
2026-05-04 05:07 10.85547 123.19149 33291 ft 468 kts 330°
2026-05-04 05:07 10.88387 123.17482 33646 ft 467 kts 330°
2026-05-04 05:07 10.91170 123.15848 34006 ft 465 kts 330°
2026-05-04 05:09 11.13733 123.02605 35802 ft 469 kts 329°
2026-05-04 05:09 11.16592 123.00924 35860 ft 470 kts 329°
2026-05-04 05:10 11.22236 122.97604 35864 ft 469 kts 329°
2026-05-04 05:10 11.27912 122.94262 35866 ft 469 kts 329°
2026-05-04 05:11 11.33548 122.90945 35865 ft 469 kts 329°
2026-05-04 05:11 11.39232 122.87601 35866 ft 469 kts 329°
2026-05-04 05:12 11.44892 122.84270 35869 ft 470 kts 329°
2026-05-04 05:12 11.50575 122.80918 35869 ft 469 kts 329°
2026-05-04 05:13 11.56224 122.77586 35871 ft 469 kts 329°
2026-05-04 05:13 11.61823 122.74122 35872 ft 469 kts 326°
2026-05-04 05:14 11.67311 122.70438 35874 ft 468 kts 326°
2026-05-04 05:14 11.72754 122.66767 35874 ft 468 kts 326°
2026-05-04 05:15 11.78191 122.63101 35875 ft 468 kts 326°
2026-05-04 05:15 11.83702 122.59387 35880 ft 468 kts 326°
2026-05-04 05:16 11.89146 122.55715 35883 ft 468 kts 326°
2026-05-04 05:16 11.94571 122.52055 35881 ft 468 kts 326°
2026-05-04 05:17 12.00040 122.48364 35879 ft 468 kts 326°
2026-05-04 05:17 12.05528 122.44659 35876 ft 468 kts 325°
2026-05-04 05:18 12.11000 122.40962 35876 ft 468 kts 326°
2026-05-04 05:18 12.16560 122.37204 35871 ft 468 kts 325°
2026-05-04 05:19 12.22032 122.33503 35865 ft 468 kts 325°
2026-05-04 05:19 12.27497 122.29803 35864 ft 468 kts 325°
2026-05-04 05:20 12.32909 122.26137 35864 ft 468 kts 325°
2026-05-04 05:20 12.38359 122.22436 35868 ft 469 kts 325°
2026-05-04 05:21 12.43785 122.18677 35874 ft 469 kts 324°
2026-05-04 05:21 12.49255 122.14871 35876 ft 469 kts 324°
2026-05-04 05:22 12.54707 122.11082 35877 ft 468 kts 324°
2026-05-04 05:22 12.60166 122.07288 35877 ft 468 kts 324°
2026-05-04 05:23 12.65605 122.03503 35877 ft 468 kts 324°
2026-05-04 05:23 12.70993 121.99753 35876 ft 469 kts 324°
2026-05-04 05:24 12.76395 121.95991 35878 ft 469 kts 324°
2026-05-04 05:24 12.81816 121.92215 35877 ft 469 kts 324°
2026-05-04 05:25 12.87220 121.88449 35876 ft 469 kts 324°
2026-05-04 05:25 12.92636 121.84673 35877 ft 469 kts 324°
2026-05-04 05:26 12.98052 121.80893 35743 ft 467 kts 324°
2026-05-04 05:26 13.00772 121.78996 35273 ft 462 kts 324°
2026-05-04 05:26 13.03444 121.77127 34323 ft 464 kts 324°
2026-05-04 05:27 13.06129 121.75249 33139 ft 470 kts 325°
2026-05-04 05:28 13.25750 121.61531 26145 ft 473 kts 326°
2026-05-04 05:29 13.28459 121.59635 25537 ft 465 kts 326°
2026-05-04 05:29 13.31130 121.57765 24924 ft 459 kts 326°
2026-05-04 05:29 13.33771 121.55914 24320 ft 453 kts 326°
2026-05-04 05:29 13.36378 121.54088 23732 ft 447 kts 326°
2026-05-04 05:31 13.52914 121.42484 21488 ft 371 kts 326°
2026-05-04 05:31 13.55022 121.41007 21361 ft 358 kts 327°
2026-05-04 05:32 13.57165 121.39771 21225 ft 346 kts 337°
2026-05-04 05:32 13.59428 121.38914 20881 ft 343 kts 346°
2026-05-04 05:32 13.61739 121.38330 20483 ft 341 kts 348°
2026-05-04 05:33 13.66389 121.37511 19608 ft 339 kts 359°
2026-05-04 05:33 13.68748 121.37421 19091 ft 341 kts
2026-05-04 05:33 13.71117 121.37357 18636 ft 340 kts
2026-05-04 05:33 13.73475 121.37283 18241 ft 338 kts
2026-05-04 05:34 13.75848 121.37192 17840 ft 336 kts 360°
2026-05-04 05:34 13.78177 121.37093 17449 ft 333 kts 360°
2026-05-04 05:34 13.80480 121.36987 17055 ft 331 kts 360°
2026-05-04 05:34 13.82796 121.36879 16677 ft 329 kts 360°
2026-05-04 05:35 13.85056 121.36771 16285 ft 327 kts 359°
2026-05-04 05:35 13.87339 121.36660 15922 ft 325 kts 359°
2026-05-04 05:35 13.89597 121.36549 15536 ft 324 kts 359°
2026-05-04 05:35 13.91860 121.36440 15166 ft 322 kts 359°
2026-05-04 05:36 13.94082 121.36330 14794 ft 320 kts 359°
2026-05-04 05:36 13.96310 121.36221 14426 ft 318 kts 359°
2026-05-04 05:36 13.98522 121.36111 14050 ft 316 kts 359°
2026-05-04 05:36 14.00694 121.36003 13662 ft 314 kts 359°
2026-05-04 05:37 14.02870 121.35895 13292 ft 311 kts 359°
2026-05-04 05:37 14.05051 121.35786 12914 ft 309 kts 359°
2026-05-04 05:37 14.07195 121.35681 12535 ft 306 kts 359°
2026-05-04 05:38 14.11450 121.35471 11790 ft 301 kts 359°
2026-05-04 05:38 14.13533 121.35368 11408 ft 297 kts 360°
2026-05-04 05:38 14.15622 121.35263 11050 ft 295 kts 360°
2026-05-04 05:38 14.17752 121.35159 10658 ft 292 kts 360°
2026-05-04 05:39 14.19851 121.35056 10280 ft 289 kts 360°
2026-05-04 05:39 14.23997 121.34849 9545 ft 283 kts 360°
2026-05-04 05:39 14.25957 121.34753 9197 ft 281 kts 360°
2026-05-04 05:40 14.29870 121.34560 8479 ft 278 kts 360°
2026-05-04 05:40 14.31797 121.34464 8088 ft 278 kts
2026-05-04 05:40 14.33738 121.34369 7688 ft 277 kts 360°
2026-05-04 05:41 14.35670 121.34272 7335 ft 276 kts
2026-05-04 05:41 14.37538 121.34179 7191 ft 266 kts
2026-05-04 05:41 14.39364 121.33913 7066 ft 258 kts 346°
2026-05-04 05:41 14.41011 121.33195 6775 ft 259 kts 335°
2026-05-04 05:42 14.42593 121.32274 6449 ft 259 kts 333°
2026-05-04 05:42 14.44144 121.31334 6138 ft 258 kts 333°
2026-05-04 05:42 14.45690 121.30402 5832 ft 256 kts 333°
2026-05-04 05:42 14.47236 121.29481 5612 ft 250 kts 333°
2026-05-04 05:43 14.48725 121.28599 5479 ft 241 kts 333°
2026-05-04 05:43 14.50170 121.27746 5321 ft 234 kts 334°
2026-05-04 05:43 14.51571 121.26928 5043 ft 233 kts 334°
2026-05-04 05:45 14.60667 121.21197 3611 ft 213 kts 296°
2026-05-04 05:45 14.60800 121.19687 3374 ft 215 kts 252°
2026-05-04 05:47 14.55597 121.10532 1664 ft 159 kts 239°
2026-05-04 05:47 14.54982 121.09422 1417 ft 151 kts 239°
2026-05-04 05:47 14.54406 121.08384 1209 ft 149 kts 238°
2026-05-04 05:48 14.53854 121.07396 1013 ft 147 kts 239°
2026-05-04 05:48 14.53273 121.06344 795 ft 145 kts 238°
2026-05-04 05:48 14.52718 121.05323 563 ft 142 kts 240°
2026-05-04 05:48 14.52161 121.04291 369 ft 143 kts 238°
2026-05-04 05:49 14.51601 121.03275 201 ft 137 kts 238°
2026-05-04 05:49 14.51082 121.02349 89 ft 126 kts 239°
2026-05-04 05:49 14.50690 121.01643 82 ft 77 kts 239°
2026-05-04 05:49 14.50532 121.01265 82 ft 29 kts 264°
2026-05-04 05:51 14.50794 121.01270 82 ft 4 kts 329°
2026-05-04 05:51 14.50821 121.01254 82 ft 3 kts 330°
2026-05-04 05:52 14.50829 121.01250 82 ft 0 kts 330°